[[{"header":{"parameterUnit":"m.s-1","parameterCategory":1,"la1":30.2991,"la2":30.254,"lo1":-89.0895,"lo2":-89.0444,"dy":0.0017,"dx":0.0017,"nx":28,"ny":28,"refTime":"2023-03-13T21:00:00:Z","depth":0,"parameterNumber":2,"parameterNumberName":"U-component_of_WINDS"},"data":[0,0,0,0,0,0,0,0,0,0,0,0,0,0,0,0,0,0,0,0,0,0,0,0,0,0,0,0,0,0,0,0,0,0,0,0,0,0,0,0,0,0,0,0,0,0,0,0,0,0,0,0,0,0,0,0,0,0,-1.5417,-1.5417,0,-1.5442,-1.5442,-1.5442,-1.5407,-1.5405,-1.5404,-1.5403,-1.5429,-1.5431,-1.5433,0,0,0,0,0,0,0,0,0,0,0,0,0,-1.5337,-1.5339,-1.5417,-1.5417,-1.5417,-1.5442,-1.5442,-1.5442,-1.5407,-1.5405,-1.5404,-1.5402,-1.5429,-1.5431,-1.5433,0,0,0,0,0,0,0,0,0,0,0,0,0,-1.5368,-1.5339,-1.5416,-1.5402,-1.5401,-1.5442,-1.5442,-1.5442,-1.5407,-1.5405,-1.5403,-1.5402,-1.5428,-1.5431,-1.5433,-1.5489,0,0,-1.5442,-1.5443,0,0,0,0,0,0,0,0,-1.5366,-1.5371,-1.5404,-1.5403,-1.5402,-1.5419,-1.5424,-1.5458,-1.5408,-1.5405,-1.5403,-1.5401,-1.5427,-1.543,-1.5439,-1.549,-1.5491,-1.5442,-1.5444,-1.5445,-1.5446,0,0,0,0,0,0,0,-1.5364,-1.537,-1.5427,-1.5405,-1.5404,-1.5395,-1.5397,-1.543,-1.5427,-1.5405,-1.5403,-1.5406,-1.5427,-1.5436,-1.5439,-1.5491,-1.5442,-1.5445,-1.5446,-1.5448,-1.5588,-1.559,0,0,0,0,0,0,-1.5364,-1.5368,-1.5426,-1.5427,-1.5379,-1.5398,-1.54,-1.5416,-1.5426,-1.5426,-1.5408,-1.5404,-1.5433,-1.5436,-1.544,-1.5505,-1.5445,-1.5448,-1.5449,-1.5586,-1.5588,-1.559,0,0,0,0,0,0,-1.5362,-1.5369,-1.5425,-1.5397,-1.5403,-1.5401,-1.5419,-1.5417,-1.5427,-1.5428,-1.5427,-1.5418,-1.5431,-1.5436,-1.5477,-1.5505,-1.5449,-1.5452,-1.5583,-1.5586,-1.5589,-1.5635,0,0,0,0,0,0,-1.536,-1.5369,-1.539,-1.5398,-1.5405,-1.5461,-1.5421,-1.5419,-1.5432,-1.5428,-1.5438,-1.5438,-1.543,-1.5473,-1.5479,-1.5508,-1.5454,-1.5581,-1.5585,-1.5588,-1.5631,-1.564,-1.5647,0,0,0,0,0,-1.5357,-1.5403,-1.5391,-1.5399,-1.5432,-1.5463,-1.5467,-1.5457,-1.5434,-1.5456,-1.5456,-1.5437,-1.5501,-1.5477,-1.5484,-1.5515,-1.5579,-1.5583,-1.5588,-1.5628,-1.5638,-1.5647,0,0,0,0,0,0,-1.5399,-1.5403,-1.5391,-1.544,-1.5451,-1.5457,-1.5483,-1.5468,-1.5486,-1.5482,-1.5469,-1.5471,-1.5515,-1.5518,-1.5492,-1.5568,-1.5536,-1.5542,-1.5564,-1.5574,-1.5581,-1.5579,-1.5456,0,0,0,0,0,-1.5414,-1.5439,-1.5441,-1.5484,-1.549,-1.5486,-1.5499,-1.5491,-1.5502,-1.5506,-1.551,-1.5521,-1.5543,-1.5559,-1.558,-1.5631,-1.5633,-1.5656,-1.5663,-1.567,-1.5675,-1.5702,-1.5712,-1.5605,-1.5605,-1.5605,0,0,-1.5445,-1.545,-1.5467,-1.5493,-1.55,-1.5526,-1.549,-1.552,-1.5539,-1.5511,-1.5549,-1.5552,-1.5564,-1.561,-1.563,-1.5614,-1.5705,-1.5676,-1.5681,-1.5683,-1.5708,-1.5718,-1.5727,-1.5608,-1.5608,-1.5607,0,0,-1.5515,-1.5522,-1.5558,-1.5566,-1.5578,-1.5574,-1.5583,-1.559,-1.5591,-1.5629,-1.5608,-1.563,-1.5669,-1.5678,-1.5688,-1.576,-1.5743,-1.5767,-1.5807,-1.5833,-1.5842,-1.5849,-1.5874,-1.5883,-1.5772,-1.5772,-1.5772,0,-1.5552,-1.559,-1.5578,-1.5609,-1.562,-1.5595,-1.5632,-1.564,-1.5658,-1.5667,-1.5648,-1.5696,-1.5702,-1.575,-1.5767,-1.5776,-1.5785,-1.5766,-1.5842,-1.5849,-1.5856,-1.5879,-1.5889,-1.5775,-1.5775,-1.5775,-1.5774,0,-1.5635,-1.5662,-1.569,-1.5707,-1.5722,-1.5755,-1.5747,-1.5764,-1.5753,-1.5751,-1.579,-1.5796,-1.5817,-1.5828,-1.5818,-1.5874,-1.5863,-1.5844,-1.5811,-1.5869,-1.5891,-1.59,-1.5779,-1.5778,-1.5777,-1.5777,0,0,-1.5733,-1.5742,-1.5753,-1.576,-1.577,-1.5791,-1.5822,-1.5842,-1.5856,-1.5869,-1.5895,-1.5928,-1.5909,-1.592,-1.5911,-1.5934,-1.599,-1.5912,-1.5912,-1.5926,-1.605,-1.6065,-1.6075,-1.5978,-1.598,-1.5981,-1.6049,0,-1.5803,-1.5857,-1.5846,-1.5899,-1.5923,-1.59,-1.5927,-1.5936,-1.5935,-1.5955,-1.5953,-1.5977,-1.5951,-1.5957,-1.5979,-1.5978,-1.6014,-1.5973,-1.6002,-1.6003,-1.6,-1.6087,-1.6103,-1.6166,-1.6057,-1.6059,-1.606,0,-1.5891,-1.5906,-1.5962,-1.5967,-1.5977,-1.6002,-1.6019,-1.6038,-1.6048,-1.6045,-1.6057,-1.6043,-1.6074,-1.6041,-1.6083,-1.6055,-1.6066,-1.6067,-1.6069,-1.6072,-1.6035,-1.6092,-1.6186,-1.6196,-1.6073,-1.6072,-1.6071,0,-1.5956,-1.5991,-1.6028,-1.6035,-1.6042,-1.606,-1.6064,-1.6072,-1.6084,-1.6099,-1.6106,-1.6125,-1.6135,-1.6149,-1.614,-1.6117,-1.6184,-1.615,-1.6182,-1.6182,-1.6197,-1.6196,-1.6295,-1.6205,-1.6204,-1.6204,-1.6204,0,-1.6035,-1.607,-1.6058,-1.6081,-1.6118,-1.6105,-1.6143,-1.6144,-1.6151,-1.6173,-1.6154,-1.6175,-1.6162,-1.6182,-1.6176,-1.6211,-1.6216,-1.6214,-1.6212,-1.6216,-1.6216,-1.6223,-1.6219,-1.6207,-1.6206,-1.6206,-1.6205,0,-1.6115,-1.6108,-1.6147,-1.615,-1.6152,-1.6179,-1.6182,-1.6203,-1.62,-1.6228,-1.6234,-1.6229,-1.6252,-1.6244,-1.6269,-1.6264,-1.6309,-1.6301,-1.6306,-1.6304,-1.6336,-1.6333,-1.6442,-1.6456,-1.6357,-1.6358,-1.6359,0,-1.6165,-1.6191,-1.6197,-1.621,-1.6215,-1.6237,-1.625,-1.6237,-1.6251,-1.6263,-1.6282,-1.6303,-1.6319,-1.6356,-1.6355,-1.6373,-1.6365,-1.6402,-1.6368,-1.6371,-1.6365,-1.6364,-1.6366,-1.6409,-1.6411,-1.6412,-1.6412,0,-1.6256,-1.6251,-1.6269,-1.6286,-1.6301,-1.6314,-1.6325,-1.6337,-1.6325,-1.6341,-1.6364,-1.6376,-1.64,-1.6421,-1.6437,-1.6441,-1.6425,-1.6423,-1.6431,-1.6436,-1.6437,-1.6436,-1.6324,-1.6421,-1.642,-1.6419,-1.6419,-1.6418,-1.6322,-1.6344,-1.6351,-1.6371,-1.6378,-1.6388,-1.6408,-1.6407,-1.6425,-1.6444,-1.6436,-1.6462,-1.6469,-1.6489,-1.6495,-1.6515,-1.65,-1.6513,-1.6516,-1.6519,-1.6523,-1.6434,-1.6518,-1.6517,-1.6517,-1.6517,-1.6517,0,-1.6411,-1.6414,-1.6433,-1.6449,-1.6465,-1.6447,-1.6458,-1.6473,-1.6496,-1.6504,-1.652,-1.6545,-1.6565,-1.6564,-1.6582,-1.6598,-1.6591,-1.6603,-1.6602,-1.6603,-1.6535,-1.6525,-1.6609,-1.6609,-1.6609,-1.6609,-1.6609,-1.6609,-1.6459,-1.6495,-1.649,-1.6528,-1.6531,-1.6556,-1.6563,-1.6572,-1.6579,-1.6608,-1.6624,-1.6623,-1.6628,-1.6646,-1.6663,-1.6662,-1.6669,-1.6684,-1.6681,-1.6617,-1.6608,-1.6599,-1.6591,-1.6686,-1.6686,-1.6747,-1.6748,-1.6748]},{"header":{"parameterUnit":"m.s-1","parameterCategory":1,"la1":30.2991,"la2":30.254,"lo1":-89.0895,"lo2":-89.0444,"dy":0.0017,"dx":0.0017,"nx":28,"ny":28,"refTime":"2023-03-13T21:00:00:Z","depth":0,"parameterNumber":3,"parameterNumberName":"V-component_of_WINDS"},"data":[0,0,0,0,0,0,0,0,0,0,0,0,0,0,0,0,0,0,0,0,0,0,0,0,0,0,0,0,0,0,0,0,0,0,0,0,0,0,0,0,0,0,0,0,0,0,0,0,0,0,0,0,0,0,0,0,0,0,-4.1457,-4.1458,0,-4.1527,-4.1528,-4.1529,-4.1501,-4.15,-4.1498,-4.1497,-4.1564,-4.1567,-4.1571,0,0,0,0,0,0,0,0,0,0,0,0,0,-4.1294,-4.1297,-4.1457,-4.1458,-4.1459,-4.1527,-4.1528,-4.1529,-4.1502,-4.15,-4.1498,-4.1496,-4.1563,-4.1567,-4.1571,0,0,0,0,0,0,0,0,0,0,0,0,0,-4.1365,-4.1298,-4.1457,-4.1453,-4.1454,-4.1527,-4.1528,-4.1529,-4.1502,-4.15,-4.1497,-4.1495,-4.1562,-4.1567,-4.1571,-4.1651,0,0,-4.1587,-4.1589,0,0,0,0,0,0,0,0,-4.1361,-4.1371,-4.1453,-4.1454,-4.1454,-4.1503,-4.1495,-4.157,-4.1503,-4.1484,-4.1497,-4.1494,-4.1546,-4.1552,-4.157,-4.1654,-4.1657,-4.1587,-4.159,-4.1592,-4.1594,0,0,0,0,0,0,0,-4.1356,-4.1367,-4.1485,-4.1454,-4.1455,-4.1447,-4.1454,-4.1509,-4.1527,-4.1485,-4.1483,-4.1492,-4.1545,-4.1565,-4.1571,-4.1658,-4.1587,-4.1591,-4.1594,-4.1596,-4.1809,-4.1811,0,0,0,0,0,0,-4.1351,-4.1364,-4.1482,-4.1487,-4.1401,-4.1452,-4.146,-4.149,-4.1527,-4.153,-4.1494,-4.1491,-4.1558,-4.1566,-4.1574,-4.1668,-4.1592,-4.1597,-4.16,-4.1806,-4.1809,-4.1812,0,0,0,0,0,0,-4.1348,-4.1362,-4.1479,-4.1425,-4.1439,-4.1457,-4.1491,-4.1492,-4.1512,-4.1534,-4.1536,-4.1512,-4.1556,-4.1567,-4.1632,-4.167,-4.1599,-4.1604,-4.1803,-4.1807,-4.1811,-4.1857,0,0,0,0,0,0,-4.1343,-4.1361,-4.1393,-4.1426,-4.1442,-4.1538,-4.1493,-4.1496,-4.1522,-4.1518,-4.1551,-4.1554,-4.1555,-4.1625,-4.1637,-4.1675,-4.1607,-4.1799,-4.1805,-4.1809,-4.1852,-4.1862,-4.1871,0,0,0,0,0,-4.1338,-4.1402,-4.1394,-4.1409,-4.1482,-4.154,-4.1549,-4.1551,-4.1525,-4.1556,-4.1569,-4.1552,-4.1664,-4.1631,-4.1645,-4.1685,-4.1797,-4.1803,-4.1809,-4.1848,-4.186,-4.1871,0,0,0,0,0,0,-4.1372,-4.1406,-4.1398,-4.1476,-4.1505,-4.1535,-4.1574,-4.1564,-4.1601,-4.1596,-4.1595,-4.1603,-4.167,-4.1684,-4.1647,-4.1763,-4.1726,-4.1735,-4.1751,-4.1763,-4.1772,-4.1766,-4.1612,0,0,0,0,0,-4.1388,-4.1434,-4.1462,-4.1527,-4.1543,-4.1556,-4.1582,-4.1581,-4.1611,-4.1623,-4.1641,-4.167,-4.1711,-4.1738,-4.1777,-4.1855,-4.186,-4.1889,-4.1898,-4.1906,-4.1913,-4.1953,-4.1966,-4.1832,-4.1832,-4.1832,0,0,-4.1423,-4.1448,-4.1476,-4.1535,-4.1558,-4.1603,-4.1567,-4.1617,-4.1651,-4.163,-4.1692,-4.1707,-4.1739,-4.181,-4.1842,-4.1824,-4.1952,-4.1913,-4.1919,-4.1922,-4.1961,-4.1974,-4.1985,-4.1836,-4.1835,-4.1834,0,0,-4.1509,-4.1533,-4.159,-4.1614,-4.165,-4.1658,-4.1672,-4.1704,-4.1713,-4.1776,-4.1761,-4.18,-4.1872,-4.1895,-4.1916,-4.2011,-4.1996,-4.2023,-4.2071,-4.211,-4.2121,-4.213,-4.2163,-4.2174,-4.2031,-4.2031,-4.2031,0,-4.1547,-4.1617,-4.162,-4.1672,-4.1697,-4.1682,-4.1738,-4.1761,-4.1807,-4.1824,-4.1804,-4.1893,-4.1913,-4.1989,-4.2012,-4.203,-4.2044,-4.2019,-4.212,-4.2129,-4.2138,-4.2168,-4.2181,-4.2034,-4.2034,-4.2033,-4.2033,0,-4.1661,-4.1709,-4.1751,-4.1797,-4.1827,-4.1881,-4.189,-4.192,-4.1917,-4.1927,-4.1991,-4.2015,-4.2058,-4.2077,-4.2073,-4.2152,-4.2139,-4.212,-4.2082,-4.2153,-4.2182,-4.2194,-4.2038,-4.2037,-4.2036,-4.2036,0,0,-4.1769,-4.1817,-4.1832,-4.1852,-4.189,-4.1927,-4.198,-4.2024,-4.2048,-4.2081,-4.2123,-4.2185,-4.2166,-4.219,-4.2189,-4.2224,-4.2296,-4.22,-4.2201,-4.2216,-4.2382,-4.2395,-4.2409,-4.2287,-4.229,-4.2291,-4.2378,0,-4.1856,-4.195,-4.1954,-4.2039,-4.2083,-4.2069,-4.2115,-4.2142,-4.2153,-4.2191,-4.2203,-4.2245,-4.2219,-4.2233,-4.2267,-4.228,-4.2329,-4.2274,-4.2325,-4.2327,-4.2316,-4.2424,-4.2439,-4.252,-4.239,-4.2392,-4.2393,0,-4.1971,-4.2008,-4.2098,-4.2129,-4.2148,-4.2189,-4.2229,-4.2266,-4.2296,-4.2301,-4.2329,-4.2323,-4.2374,-4.2336,-4.2407,-4.2369,-4.239,-4.24,-4.2403,-4.2406,-4.2363,-4.2429,-4.2546,-4.2557,-4.2411,-4.241,-4.2409,0,-4.2039,-4.2112,-4.2174,-4.2192,-4.2231,-4.226,-4.2277,-4.2305,-4.2331,-4.2366,-4.2382,-4.2422,-4.2443,-4.2473,-4.2478,-4.245,-4.2548,-4.251,-4.2552,-4.2552,-4.2572,-4.257,-4.2692,-4.2588,-4.2588,-4.2588,-4.2588,0,-4.2136,-4.219,-4.2205,-4.2243,-4.2303,-4.2307,-4.2366,-4.2381,-4.2407,-4.2446,-4.2437,-4.2474,-4.2478,-4.2516,-4.2519,-4.2576,-4.2586,-4.259,-4.259,-4.259,-4.259,-4.2603,-4.2597,-4.2591,-4.259,-4.259,-4.2589,0,-4.2221,-4.2233,-4.23,-4.2332,-4.2341,-4.2384,-4.241,-4.2446,-4.2456,-4.2506,-4.2518,-4.2534,-4.2578,-4.2586,-4.2637,-4.2639,-4.2706,-4.2702,-4.2697,-4.2695,-4.2736,-4.2731,-4.2869,-4.2887,-4.2773,-4.2774,-4.2775,0,-4.2281,-4.2323,-4.2359,-4.2386,-4.2405,-4.2448,-4.2474,-4.248,-4.2507,-4.2545,-4.2576,-4.2619,-4.2654,-4.2724,-4.2739,-4.2778,-4.2773,-4.2819,-4.2778,-4.2777,-4.2771,-4.2768,-4.2771,-4.2826,-4.2827,-4.2828,-4.2829,0,-4.2385,-4.2389,-4.2429,-4.2471,-4.2503,-4.2536,-4.2567,-4.2589,-4.2598,-4.2629,-4.2675,-4.2702,-4.2755,-4.2797,-4.2836,-4.2852,-4.2841,-4.2842,-4.2853,-4.2852,-4.2847,-4.2849,-4.2716,-4.2838,-4.2837,-4.2836,-4.2836,-4.2835,-4.2459,-4.2495,-4.2526,-4.257,-4.2594,-4.2624,-4.2659,-4.2674,-4.2712,-4.2757,-4.2757,-4.2807,-4.2835,-4.2886,-4.2905,-4.2942,-4.2927,-4.2944,-4.2948,-4.2952,-4.2955,-4.2843,-4.2949,-4.2949,-4.2949,-4.2949,-4.2948,0,-4.2561,-4.2581,-4.2622,-4.2666,-4.27,-4.2689,-4.2723,-4.2752,-4.2796,-4.2824,-4.2859,-4.291,-4.2951,-4.297,-4.301,-4.3036,-4.3032,-4.3046,-4.3043,-4.3047,-4.2967,-4.2952,-4.3049,-4.3049,-4.3049,-4.3049,-4.3049,-4.3049,-4.2618,-4.2678,-4.2686,-4.2758,-4.2777,-4.2826,-4.2846,-4.2872,-4.2895,-4.2953,-4.2988,-4.3001,-4.3024,-4.3066,-4.3103,-4.3107,-4.3121,-4.3137,-4.3139,-4.3063,-4.3053,-4.3043,-4.3029,-4.3141,-4.3141,-4.3216,-4.3216,-4.3217]}]]